Time,TemperatureF,DewpointF,PressureIn,WindDirection,WindDirectionDegrees,WindSpeedMPH,WindSpeedGustMPH,Humidity,HourlyPrecipIn,Conditions,Clouds,dailyrainin,SoftwareType,DateUTC
2013-10-03 00:01:00,69.7,68.0,29.91,NNE,32,1.2,3.7,95,0.00,,,0.00,TxWx,2013-10-03 05:01:00,
2013-10-03 00:06:00,69.7,68.0,29.92,West,280,0.6,1.9,95,0.00,,,0.00,TxWx,2013-10-03 05:06:00,
2013-10-03 00:11:00,69.6,68.0,29.91,SSW,212,1.2,2.5,95,0.00,,,0.00,TxWx,2013-10-03 05:11:00,
2013-10-03 00:16:00,69.5,68.0,29.91,NW,325,0.6,0.6,95,0.00,,,0.00,TxWx,2013-10-03 05:16:00,
2013-10-03 00:21:00,69.5,68.0,29.91,SSW,212,1.2,2.5,95,0.00,,,0.00,TxWx,2013-10-03 05:21:00,
2013-10-03 00:26:00,69.4,68.0,29.91,NNW,347,0.6,1.9,96,0.00,,,0.00,TxWx,2013-10-03 05:26:00,
2013-10-03 00:31:00,69.4,68.0,29.91,NNW,347,0.0,2.5,96,0.00,,,0.00,TxWx,2013-10-03 05:31:00,
2013-10-03 00:36:00,69.3,68.0,29.91,WSW,257,0.6,1.2,96,0.00,,,0.00,TxWx,2013-10-03 05:36:00,
2013-10-03 00:41:00,69.3,68.0,29.91,NW,325,0.6,1.9,96,0.00,,,0.00,TxWx,2013-10-03 05:41:00,
2013-10-03 00:46:00,69.2,68.0,29.91,ESE,122,1.2,1.9,96,0.00,,,0.00,TxWx,2013-10-03 05:46:00,
2013-10-03 00:51:00,69.1,68.0,29.91,NE,55,0.6,2.5,96,0.00,,,0.00,TxWx,2013-10-03 05:51:00,
2013-10-03 00:56:00,69.1,68.0,29.91,SE,145,1.9,2.5,96,0.00,,,0.00,TxWx,2013-10-03 05:56:00,
2013-10-03 01:01:00,69.0,68.0,29.91,WNW,302,1.2,1.2,96,0.00,,,0.00,TxWx,2013-10-03 06:01:00,
2013-10-03 01:06:00,69.0,68.0,29.91,SSW,212,1.2,2.5,96,0.00,,,0.00,TxWx,2013-10-03 06:06:00,
2013-10-03 01:12:00,68.9,68.0,29.91,South,190,0.6,1.9,96,0.00,,,0.00,TxWx,2013-10-03 06:12:00,
2013-10-03 01:17:00,68.9,68.0,29.91,West,280,0.6,2.5,96,0.00,,,0.00,TxWx,2013-10-03 06:17:00,
2013-10-03 01:22:00,68.8,68.0,29.91,WSW,257,1.2,3.7,96,0.00,,,0.00,TxWx,2013-10-03 06:22:00,
2013-10-03 01:27:00,68.8,68.0,29.91,ESE,122,1.2,2.5,97,0.00,,,0.00,TxWx,2013-10-03 06:27:00,
2013-10-03 01:32:00,68.8,68.0,29.91,ESE,122,2.5,2.5,97,0.00,,,0.00,TxWx,2013-10-03 06:32:00,
2013-10-03 01:37:00,68.7,68.0,29.91,SW,235,1.9,1.9,97,0.00,,,0.00,TxWx,2013-10-03 06:37:00,
2013-10-03 01:42:00,68.6,68.0,29.91,NW,325,1.2,1.9,97,0.00,,,0.00,TxWx,2013-10-03 06:42:00,
2013-10-03 01:47:00,68.6,68.0,29.90,East,100,0.6,1.9,97,0.00,,,0.00,TxWx,2013-10-03 06:47:00,
2013-10-03 01:52:00,68.6,68.0,29.90,East,100,0.6,1.9,97,0.00,,,0.00,TxWx,2013-10-03 06:52:00,
2013-10-03 01:57:00,68.6,68.0,29.90,ESE,122,0.6,1.9,97,0.00,,,0.00,TxWx,2013-10-03 06:57:00,
2013-10-03 02:02:00,68.5,68.0,29.90,WSW,257,1.9,4.3,97,0.00,,,0.00,TxWx,2013-10-03 07:02:00,
2013-10-03 02:07:00,68.4,67.0,29.90,SE,145,1.2,3.1,97,0.00,,,0.00,TxWx,2013-10-03 07:07:00,
2013-10-03 02:12:00,68.4,67.0,29.89,WSW,257,1.9,3.1,97,0.00,,,0.00,TxWx,2013-10-03 07:12:00,
2013-10-03 02:17:00,68.3,67.0,29.90,West,280,1.2,1.9,97,0.00,,,0.00,TxWx,2013-10-03 07:17:00,
2013-10-03 02:22:00,68.3,67.0,29.89,North,10,0.6,3.7,97,0.00,,,0.00,TxWx,2013-10-03 07:22:00,
2013-10-03 02:27:00,68.2,67.0,29.89,SSE,167,1.2,2.5,97,0.00,,,0.00,TxWx,2013-10-03 07:27:00,
2013-10-03 02:32:00,68.2,67.0,29.89,ESE,122,1.9,1.9,97,0.00,,,0.00,TxWx,2013-10-03 07:32:00,
2013-10-03 02:37:00,68.1,67.0,29.89,WSW,257,1.9,1.9,97,0.00,,,0.00,TxWx,2013-10-03 07:37:00,
2013-10-03 02:42:00,68.1,67.0,29.89,NNW,347,0.6,2.5,97,0.00,,,0.00,TxWx,2013-10-03 07:42:00,
2013-10-03 02:47:00,68.1,67.0,29.88,WSW,257,1.2,3.1,97,0.00,,,0.00,TxWx,2013-10-03 07:47:00,
2013-10-03 02:52:00,68.0,67.0,29.89,SSE,167,1.2,3.1,97,0.00,,,0.00,TxWx,2013-10-03 07:52:00,
2013-10-03 02:57:00,68.0,67.0,29.88,SSW,212,1.9,2.5,97,0.00,,,0.00,TxWx,2013-10-03 07:57:00,
2013-10-03 03:03:00,68.0,67.0,29.88,South,190,1.9,6.8,97,0.00,,,0.00,TxWx,2013-10-03 08:03:00,
2013-10-03 03:08:00,68.0,67.0,29.88,SSW,212,1.9,5.6,97,0.00,,,0.00,TxWx,2013-10-03 08:08:00,
2013-10-03 03:13:00,68.0,67.0,29.88,West,280,1.2,2.5,97,0.00,,,0.00,TxWx,2013-10-03 08:13:00,
2013-10-03 03:18:00,68.1,67.0,29.88,West,280,1.9,5.6,97,0.00,,,0.00,TxWx,2013-10-03 08:18:00,
2013-10-03 03:23:00,68.0,67.0,29.88,WSW,257,1.9,2.5,97,0.00,,,0.00,TxWx,2013-10-03 08:23:00,
2013-10-03 03:28:00,68.1,67.0,29.88,East,100,1.9,3.1,97,0.00,,,0.00,TxWx,2013-10-03 08:28:00,
2013-10-03 03:33:00,68.1,67.0,29.88,East,100,0.6,1.2,97,0.00,,,0.00,TxWx,2013-10-03 08:33:00,
2013-10-03 03:38:00,68.0,67.0,29.88,NNW,347,1.2,3.7,97,0.00,,,0.00,TxWx,2013-10-03 08:38:00,
2013-10-03 03:43:00,68.0,67.0,29.88,WNW,302,3.1,3.7,97,0.00,,,0.00,TxWx,2013-10-03 08:43:00,
2013-10-03 03:48:00,67.9,67.0,29.88,WNW,302,1.2,3.1,97,0.00,,,0.00,TxWx,2013-10-03 08:48:00,
2013-10-03 03:53:00,67.9,67.0,29.88,ESE,122,1.9,4.3,97,0.00,,,0.00,TxWx,2013-10-03 08:53:00,
2013-10-03 03:58:00,67.9,67.0,29.88,SW,235,1.9,2.5,97,0.00,,,0.00,TxWx,2013-10-03 08:58:00,
2013-10-03 04:03:00,67.9,67.0,29.88,West,280,1.9,2.5,97,0.00,,,0.00,TxWx,2013-10-03 09:03:00,
2013-10-03 04:08:00,67.8,67.0,29.88,SW,235,1.2,1.2,97,0.00,,,0.00,TxWx,2013-10-03 09:08:00,
2013-10-03 04:13:00,67.8,67.0,29.88,SSW,212,1.2,2.5,97,0.00,,,0.00,TxWx,2013-10-03 09:13:00,
2013-10-03 04:18:00,67.7,67.0,29.89,West,280,0.6,1.9,97,0.00,,,0.00,TxWx,2013-10-03 09:18:00,
2013-10-03 04:23:00,67.7,67.0,29.89,South,190,1.2,1.2,97,0.00,,,0.00,TxWx,2013-10-03 09:23:00,
2013-10-03 04:28:00,67.7,67.0,29.89,SW,235,1.9,2.5,98,0.00,,,0.00,TxWx,2013-10-03 09:28:00,
2013-10-03 04:33:00,67.7,67.0,29.88,ESE,122,0.6,3.7,98,0.00,,,0.00,TxWx,2013-10-03 09:33:00,
2013-10-03 04:38:00,67.6,67.0,29.88,WNW,302,1.9,2.5,98,0.00,,,0.00,TxWx,2013-10-03 09:38:00,
2013-10-03 04:43:00,67.6,67.0,29.88,North,10,0.6,1.9,98,0.00,,,0.00,TxWx,2013-10-03 09:43:00,
2013-10-03 04:48:00,67.5,67.0,29.88,WSW,257,3.1,3.7,98,0.00,,,0.00,TxWx,2013-10-03 09:48:00,
2013-10-03 04:53:00,67.5,66.0,29.88,WSW,257,1.9,5.6,98,0.00,,,0.00,TxWx,2013-10-03 09:53:00,
2013-10-03 04:58:00,67.4,66.0,29.88,SSW,212,3.1,3.7,98,0.00,,,0.00,TxWx,2013-10-03 09:58:00,
2013-10-03 05:03:00,67.4,66.0,29.88,SW,235,1.2,3.7,98,0.00,,,0.00,TxWx,2013-10-03 10:03:00,
2013-10-03 05:08:00,67.3,66.0,29.88,WSW,257,2.5,4.3,98,0.00,,,0.00,TxWx,2013-10-03 10:08:00,
2013-10-03 05:13:00,67.3,66.0,29.87,SSW,212,1.2,6.2,98,0.00,,,0.00,TxWx,2013-10-03 10:13:00,
2013-10-03 05:18:00,67.3,66.0,29.87,ESE,122,3.1,4.3,98,0.00,,,0.00,TxWx,2013-10-03 10:18:00,
2013-10-03 05:23:00,67.2,66.0,29.87,SE,145,1.9,3.1,98,0.00,,,0.00,TxWx,2013-10-03 10:23:00,
2013-10-03 05:28:00,67.2,66.0,29.87,SW,235,1.2,1.9,98,0.00,,,0.00,TxWx,2013-10-03 10:28:00,
2013-10-03 05:34:00,67.2,67.0,29.87,SSW,212,1.2,3.1,99,0.00,,,0.00,TxWx,2013-10-03 10:34:00,
2013-10-03 05:39:00,67.3,67.0,29.87,ENE,77,1.2,3.1,99,0.00,,,0.00,TxWx,2013-10-03 10:39:00,
2013-10-03 05:44:00,67.3,67.0,29.87,South,190,1.2,2.5,99,0.00,,,0.00,TxWx,2013-10-03 10:44:00,
2013-10-03 05:49:00,67.3,67.0,29.88,North,10,0.6,2.5,99,0.00,,,0.00,TxWx,2013-10-03 10:49:00,
2013-10-03 05:54:00,67.2,67.0,29.88,ENE,77,0.6,1.9,99,0.00,,,0.00,TxWx,2013-10-03 10:54:00,
2013-10-03 05:59:00,67.2,67.0,29.87,WNW,302,0.6,1.2,99,0.00,,,0.00,TxWx,2013-10-03 10:59:00,
2013-10-03 06:04:00,67.3,67.0,29.87,NE,55,0.0,1.9,99,0.00,,,0.00,TxWx,2013-10-03 11:04:00,
2013-10-03 06:09:00,67.3,67.0,29.87,WSW,257,0.6,1.9,99,0.00,,,0.00,TxWx,2013-10-03 11:09:00,
2013-10-03 06:14:00,67.3,67.0,29.87,SW,235,1.2,1.2,99,0.00,,,0.00,TxWx,2013-10-03 11:14:00,
2013-10-03 06:19:00,67.3,67.0,29.87,SSW,212,1.9,3.7,99,0.00,,,0.00,TxWx,2013-10-03 11:19:00,
2013-10-03 06:24:00,67.3,67.0,29.88,West,280,0.6,4.3,99,0.00,,,0.00,TxWx,2013-10-03 11:24:00,
2013-10-03 06:29:00,67.3,67.0,29.88,SSE,167,0.6,2.5,99,0.00,,,0.00,TxWx,2013-10-03 11:29:00,
2013-10-03 06:34:00,67.3,67.0,29.88,WNW,302,0.6,3.7,99,0.00,,,0.00,TxWx,2013-10-03 11:34:00,
2013-10-03 06:39:00,67.3,67.0,29.88,North,10,0.6,2.5,99,0.00,,,0.00,TxWx,2013-10-03 11:39:00,
2013-10-03 06:44:00,67.4,67.0,29.88,ESE,122,1.2,2.5,99,0.00,,,0.00,TxWx,2013-10-03 11:44:00,
2013-10-03 06:49:00,67.4,67.0,29.88,NNW,347,0.6,1.2,99,0.00,,,0.00,TxWx,2013-10-03 11:49:00,
2013-10-03 06:54:00,67.4,67.0,29.88,NNW,347,0.6,2.5,99,0.00,,,0.00,TxWx,2013-10-03 11:54:00,
2013-10-03 06:59:00,67.5,67.0,29.88,NE,55,0.6,2.5,99,0.00,,,0.00,TxWx,2013-10-03 11:59:00,
2013-10-03 07:04:00,67.4,67.0,29.87,WSW,257,1.2,1.9,99,0.00,,,0.00,TxWx,2013-10-03 12:04:00,
2013-10-03 07:09:00,67.4,67.0,29.88,SSW,212,1.2,3.7,99,0.00,,,0.00,TxWx,2013-10-03 12:09:00,
2013-10-03 07:14:00,67.4,67.0,29.88,ENE,77,0.0,3.1,99,0.00,,,0.00,TxWx,2013-10-03 12:14:00,
2013-10-03 07:19:00,67.4,67.0,29.88,SW,235,1.2,2.5,99,0.00,,,0.00,TxWx,2013-10-03 12:19:00,
2013-10-03 07:24:00,67.4,67.0,29.88,WSW,257,1.9,2.5,99,0.00,,,0.00,TxWx,2013-10-03 12:24:00,
2013-10-03 07:29:00,67.5,67.0,29.88,NNW,347,0.0,1.9,99,0.00,,,0.00,TxWx,2013-10-03 12:29:00,
2013-10-03 07:34:00,67.5,67.0,29.88,WSW,257,1.2,2.5,99,0.00,,,0.00,TxWx,2013-10-03 12:34:00,
2013-10-03 07:39:00,67.5,68.0,29.88,South,190,2.5,3.1,100,0.00,,,0.00,TxWx,2013-10-03 12:39:00,
2013-10-03 07:44:00,67.6,68.0,29.88,WSW,257,1.2,3.7,100,0.60,,,0.01,TxWx,2013-10-03 12:44:00,
2013-10-03 07:49:00,67.7,68.0,29.88,South,190,1.2,3.7,100,0.60,,,0.01,TxWx,2013-10-03 12:49:00,
2013-10-03 07:54:00,67.8,68.0,29.87,NE,55,0.0,3.7,100,0.00,,,0.01,TxWx,2013-10-03 12:54:00,
2013-10-03 07:59:00,67.8,68.0,29.87,East,100,1.2,2.5,100,0.00,,,0.01,TxWx,2013-10-03 12:59:00,
2013-10-03 08:04:00,67.9,68.0,29.88,SSW,212,1.2,3.7,100,0.00,,,0.01,TxWx,2013-10-03 13:04:00,
2013-10-03 08:10:00,68.1,68.0,29.88,SSW,212,1.9,2.5,100,0.00,,,0.01,TxWx,2013-10-03 13:10:00,
2013-10-03 08:15:00,68.3,68.0,29.88,SW,235,3.1,5.6,100,0.00,,,0.01,TxWx,2013-10-03 13:15:00,
2013-10-03 08:20:00,68.5,68.0,29.88,WNW,302,2.5,5.0,100,0.00,,,0.01,TxWx,2013-10-03 13:20:00,
2013-10-03 08:25:00,68.7,69.0,29.88,NNW,347,1.2,3.7,100,0.00,,,0.01,TxWx,2013-10-03 13:25:00,
2013-10-03 08:30:00,68.9,69.0,29.88,WSW,257,1.9,4.3,99,0.00,,,0.01,TxWx,2013-10-03 13:30:00,
2013-10-03 08:35:00,69.1,69.0,29.88,WNW,302,1.9,4.3,99,0.00,,,0.01,TxWx,2013-10-03 13:35:00,
2013-10-03 08:40:00,69.3,69.0,29.88,SSE,167,1.9,6.2,99,0.00,,,0.01,TxWx,2013-10-03 13:40:00,
2013-10-03 08:45:00,69.6,69.0,29.88,South,190,2.5,5.0,98,0.00,,,0.01,TxWx,2013-10-03 13:45:00,
2013-10-03 08:50:00,69.8,69.0,29.88,SSW,212,5.6,6.2,98,0.00,,,0.01,TxWx,2013-10-03 13:50:00,
2013-10-03 08:55:00,70.0,69.0,29.89,West,280,1.2,3.1,97,0.00,,,0.01,TxWx,2013-10-03 13:55:00,
2013-10-03 09:00:00,70.2,69.0,29.88,West,280,6.2,6.8,97,0.00,,,0.01,TxWx,2013-10-03 14:00:00,
2013-10-03 09:05:00,70.4,69.0,29.89,SSE,167,3.1,4.3,97,0.00,,,0.01,TxWx,2013-10-03 14:05:00,
2013-10-03 09:10:00,70.5,70.0,29.89,WSW,257,3.1,4.3,96,0.00,,,0.01,TxWx,2013-10-03 14:10:00,
2013-10-03 09:15:00,70.6,70.0,29.88,ENE,77,3.7,9.3,96,0.00,,,0.01,TxWx,2013-10-03 14:15:00,
2013-10-03 09:20:00,70.7,70.0,29.88,SE,145,5.0,6.2,96,0.00,,,0.01,TxWx,2013-10-03 14:20:00,
2013-10-03 09:25:00,70.9,69.0,29.89,SW,235,1.9,5.0,95,0.00,,,0.01,TxWx,2013-10-03 14:25:00,
2013-10-03 09:30:00,71.0,69.0,29.89,SSW,212,1.9,5.0,95,0.00,,,0.01,TxWx,2013-10-03 14:30:00,
2013-10-03 09:35:00,71.1,69.0,29.89,SW,235,3.1,6.2,95,0.00,,,0.01,TxWx,2013-10-03 14:35:00,
2013-10-03 09:40:00,71.3,69.0,29.89,WSW,257,1.9,2.5,95,0.00,,,0.01,TxWx,2013-10-03 14:40:00,
2013-10-03 09:45:00,71.5,69.0,29.89,West,280,2.5,4.3,95,0.00,,,0.01,TxWx,2013-10-03 14:45:00,
2013-10-03 09:50:00,71.6,70.0,29.89,WSW,257,2.5,3.1,94,0.00,,,0.01,TxWx,2013-10-03 14:50:00,
2013-10-03 09:55:00,71.7,70.0,29.89,NW,325,1.9,7.4,94,0.00,,,0.01,TxWx,2013-10-03 14:55:00,
2013-10-03 10:00:00,71.9,70.0,29.89,SW,235,3.7,5.6,93,0.00,,,0.01,TxWx,2013-10-03 15:00:00,
2013-10-03 10:05:00,72.2,70.0,29.88,NNW,347,1.2,5.6,93,0.00,,,0.01,TxWx,2013-10-03 15:05:00,
2013-10-03 10:10:00,72.3,70.0,29.88,SSW,212,1.9,4.3,93,0.00,,,0.01,TxWx,2013-10-03 15:10:00,
2013-10-03 10:15:00,72.4,70.0,29.88,South,190,2.5,5.0,93,0.00,,,0.01,TxWx,2013-10-03 15:15:00,
2013-10-03 10:21:00,72.5,69.0,29.88,North,10,1.2,3.7,92,0.00,,,0.01,TxWx,2013-10-03 15:21:00,
2013-10-03 10:26:00,72.5,70.0,29.89,West,280,1.2,1.9,92,0.00,,,0.01,TxWx,2013-10-03 15:26:00,
2013-10-03 10:31:00,72.6,70.0,29.89,WSW,257,1.9,5.0,92,0.00,,,0.01,TxWx,2013-10-03 15:31:00,
2013-10-03 10:36:00,72.8,70.0,29.89,SSE,167,1.2,3.7,92,0.00,,,0.01,TxWx,2013-10-03 15:36:00,
2013-10-03 10:41:00,72.8,70.0,29.89,West,280,1.9,2.5,91,0.00,,,0.01,TxWx,2013-10-03 15:41:00,
2013-10-03 10:46:00,71.4,66.0,29.91,NW,325,12.4,20.4,85,0.00,,,0.01,TxWx,2013-10-03 15:46:00,
2013-10-03 10:51:00,70.0,64.0,29.92,East,100,3.1,9.9,83,0.00,,,0.01,TxWx,2013-10-03 15:51:00,
2013-10-03 10:56:00,69.0,64.0,29.92,NE,55,3.7,3.7,84,0.00,,,0.01,TxWx,2013-10-03 15:56:00,
2013-10-03 11:01:00,68.2,63.0,29.91,ENE,77,2.5,5.6,85,0.00,,,0.01,TxWx,2013-10-03 16:01:00,
2013-10-03 11:06:00,67.8,64.0,29.91,North,10,0.0,1.9,87,0.00,,,0.01,TxWx,2013-10-03 16:06:00,
2013-10-03 11:11:00,67.0,64.0,29.92,NE,55,1.2,3.7,89,0.00,,,0.02,TxWx,2013-10-03 16:11:00,
2013-10-03 11:16:00,66.3,63.0,29.91,NNW,347,1.9,6.8,91,0.60,,,0.02,TxWx,2013-10-03 16:16:00,
2013-10-03 11:21:00,65.8,64.0,29.91,East,100,1.2,4.3,93,0.60,,,0.02,TxWx,2013-10-03 16:21:00,
2013-10-03 11:26:00,65.5,64.0,29.91,ESE,122,1.9,6.2,94,0.00,,,0.02,TxWx,2013-10-03 16:26:00,
2013-10-03 11:31:00,65.4,63.0,29.91,NE,55,3.1,4.3,95,0.00,,,0.02,TxWx,2013-10-03 16:31:00,
2013-10-03 11:36:00,65.3,64.0,29.90,ENE,77,0.6,2.5,96,0.00,,,0.02,TxWx,2013-10-03 16:36:00,
2013-10-03 11:41:00,65.4,64.0,29.90,NE,55,3.7,3.7,96,0.00,,,0.02,TxWx,2013-10-03 16:41:00,
2013-10-03 11:46:00,65.3,64.0,29.90,NE,55,1.9,4.3,97,0.00,,,0.02,TxWx,2013-10-03 16:46:00,
2013-10-03 11:51:00,65.3,64.0,29.89,ESE,122,1.9,5.6,97,0.00,,,0.02,TxWx,2013-10-03 16:51:00,
2013-10-03 11:56:00,65.4,64.0,29.89,NE,55,4.3,7.4,97,0.00,,,0.02,TxWx,2013-10-03 16:56:00,
2013-10-03 12:01:00,65.4,64.0,29.89,NE,55,1.9,2.5,97,0.00,,,0.02,TxWx,2013-10-03 17:01:00,
2013-10-03 12:06:00,65.5,64.0,29.89,NNE,32,0.0,1.2,98,0.00,,,0.02,TxWx,2013-10-03 17:06:00,
2013-10-03 12:11:00,65.6,65.0,29.88,NE,55,0.6,1.9,98,0.00,,,0.02,TxWx,2013-10-03 17:11:00,
2013-10-03 12:16:00,65.7,65.0,29.88,North,10,0.6,6.8,98,0.00,,,0.02,TxWx,2013-10-03 17:16:00,
2013-10-03 12:21:00,65.8,65.0,29.88,ESE,122,4.3,4.3,98,0.00,,,0.02,TxWx,2013-10-03 17:21:00,
2013-10-03 12:26:00,66.0,66.0,29.88,NNE,32,1.9,2.5,99,0.00,,,0.02,TxWx,2013-10-03 17:26:00,
2013-10-03 12:31:00,66.4,66.0,29.87,East,100,2.5,6.2,99,0.00,,,0.02,TxWx,2013-10-03 17:31:00,
2013-10-03 12:36:00,66.9,67.0,29.87,ESE,122,3.1,7.4,99,0.00,,,0.02,TxWx,2013-10-03 17:36:00,
2013-10-03 12:41:00,67.3,67.0,29.86,East,100,1.2,4.3,99,0.00,,,0.02,TxWx,2013-10-03 17:41:00,
2013-10-03 12:47:00,67.6,68.0,29.86,NNE,32,1.9,3.7,99,0.00,,,0.02,TxWx,2013-10-03 17:47:00,
2013-10-03 12:52:00,67.9,67.0,29.86,ENE,77,3.1,7.4,98,0.00,,,0.02,TxWx,2013-10-03 17:52:00,
2013-10-03 12:57:00,68.3,67.0,29.85,East,100,4.3,5.0,97,0.00,,,0.02,TxWx,2013-10-03 17:57:00,
2013-10-03 13:02:00,68.8,68.0,29.85,East,100,3.7,4.3,97,0.00,,,0.02,TxWx,2013-10-03 18:02:00,
2013-10-03 13:07:00,69.5,69.0,29.84,East,100,6.8,6.8,96,0.00,,,0.02,TxWx,2013-10-03 18:07:00,
2013-10-03 13:12:00,70.1,69.0,29.84,ESE,122,1.9,5.0,96,0.00,,,0.02,TxWx,2013-10-03 18:12:00,
2013-10-03 13:17:00,70.9,69.0,29.83,WSW,257,0.6,2.5,95,0.00,,,0.02,TxWx,2013-10-03 18:17:00,
2013-10-03 13:22:00,71.8,70.0,29.83,SE,145,2.5,4.3,94,0.00,,,0.02,TxWx,2013-10-03 18:22:00,
2013-10-03 13:27:00,72.7,70.0,29.83,SSE,167,3.7,5.6,92,0.00,,,0.02,TxWx,2013-10-03 18:27:00,
2013-10-03 13:32:00,73.8,71.0,29.83,West,280,2.5,3.7,91,0.00,,,0.02,TxWx,2013-10-03 18:32:00,
2013-10-03 13:37:00,74.6,71.0,29.83,SSE,167,3.7,3.7,89,0.00,,,0.02,TxWx,2013-10-03 18:37:00,
2013-10-03 13:42:00,75.4,71.0,29.83,South,190,2.5,3.7,87,0.00,,,0.02,TxWx,2013-10-03 18:42:00,
2013-10-03 13:47:00,76.3,71.0,29.82,SE,145,0.6,3.1,85,0.00,,,0.02,TxWx,2013-10-03 18:47:00,
2013-10-03 13:52:00,76.9,72.0,29.82,WNW,302,1.2,2.5,85,0.00,,,0.02,TxWx,2013-10-03 18:52:00,
2013-10-03 13:57:00,77.4,72.0,29.81,WSW,257,2.5,4.3,85,0.00,,,0.02,TxWx,2013-10-03 18:57:00,
2013-10-03 14:02:00,77.8,72.0,29.81,SSE,167,3.1,3.7,83,0.00,,,0.02,TxWx,2013-10-03 19:02:00,
2013-10-03 14:07:00,78.2,72.0,29.81,ESE,122,1.9,7.4,83,0.00,,,0.02,TxWx,2013-10-03 19:07:00,
2013-10-03 14:12:00,78.4,71.0,29.80,ESE,122,1.9,2.5,81,0.00,,,0.02,TxWx,2013-10-03 19:12:00,
2013-10-03 14:17:00,78.8,73.0,29.80,SSW,212,4.3,9.9,82,0.00,,,0.02,TxWx,2013-10-03 19:17:00,
2013-10-03 14:22:00,79.0,72.0,29.80,SE,145,1.2,5.6,81,0.00,,,0.02,TxWx,2013-10-03 19:22:00,
2013-10-03 14:27:00,79.1,72.0,29.80,SE,145,2.5,3.7,81,0.00,,,0.02,TxWx,2013-10-03 19:27:00,
2013-10-03 14:32:00,79.2,72.0,29.79,SW,235,1.9,2.5,80,0.00,,,0.02,TxWx,2013-10-03 19:32:00,
2013-10-03 14:37:00,79.6,73.0,29.79,West,280,2.5,4.3,80,0.00,,,0.02,TxWx,2013-10-03 19:37:00,
2013-10-03 14:42:00,80.0,73.0,29.79,SSW,212,5.0,5.6,80,0.00,,,0.02,TxWx,2013-10-03 19:42:00,
2013-10-03 14:47:00,80.4,72.0,29.79,SW,235,4.3,5.0,78,0.00,,,0.02,TxWx,2013-10-03 19:47:00,
2013-10-03 14:52:00,80.4,72.0,29.78,WNW,302,3.7,5.0,77,0.00,,,0.02,TxWx,2013-10-03 19:52:00,
2013-10-03 14:57:00,80.5,73.0,29.78,West,280,5.0,5.6,77,0.00,,,0.02,TxWx,2013-10-03 19:57:00,
2013-10-03 15:02:00,81.1,73.0,29.78,SW,235,3.1,6.8,76,0.00,,,0.02,TxWx,2013-10-03 20:02:00,
2013-10-03 15:08:00,81.4,72.0,29.78,NE,55,3.7,9.3,76,0.00,,,0.02,TxWx,2013-10-03 20:08:00,
2013-10-03 15:13:00,81.7,72.0,29.78,SSW,212,2.5,6.8,73,0.00,,,0.02,TxWx,2013-10-03 20:13:00,
2013-10-03 15:18:00,82.0,72.0,29.78,WSW,257,5.6,9.3,72,0.00,,,0.02,TxWx,2013-10-03 20:18:00,
2013-10-03 15:23:00,82.1,71.0,29.78,West,280,1.9,8.0,70,0.00,,,0.02,TxWx,2013-10-03 20:23:00,
2013-10-03 15:28:00,82.1,71.0,29.77,WSW,257,3.1,5.0,70,0.00,,,0.02,TxWx,2013-10-03 20:28:00,
2013-10-03 15:33:00,82.1,71.0,29.77,NNE,32,0.6,3.7,71,0.00,,,0.02,TxWx,2013-10-03 20:33:00,
2013-10-03 15:38:00,82.1,71.0,29.77,South,190,1.2,6.2,70,0.00,,,0.02,TxWx,2013-10-03 20:38:00,
2013-10-03 15:43:00,81.6,71.0,29.77,WNW,302,1.9,3.7,70,0.00,,,0.02,TxWx,2013-10-03 20:43:00,
2013-10-03 15:48:00,81.5,72.0,29.77,WSW,257,3.1,9.3,71,0.00,,,0.02,TxWx,2013-10-03 20:48:00,
2013-10-03 15:53:00,81.9,71.0,29.77,ESE,122,1.2,3.7,70,0.00,,,0.02,TxWx,2013-10-03 20:53:00,
2013-10-03 15:58:00,81.7,71.0,29.77,South,190,2.5,7.4,69,0.00,,,0.02,TxWx,2013-10-03 20:58:00,
2013-10-03 16:03:00,81.6,71.0,29.77,East,100,2.5,14.2,70,0.00,,,0.02,TxWx,2013-10-03 21:03:00,
2013-10-03 16:08:00,81.9,70.0,29.76,WNW,302,5.0,9.3,67,0.00,,,0.02,TxWx,2013-10-03 21:08:00,
2013-10-03 16:13:00,82.1,70.0,29.77,SW,235,3.1,6.8,67,0.00,,,0.02,TxWx,2013-10-03 21:13:00,
2013-10-03 16:18:00,82.1,70.0,29.76,East,100,1.9,5.0,67,0.00,,,0.02,TxWx,2013-10-03 21:18:00,
2013-10-03 16:23:00,82.0,70.0,29.76,WNW,302,2.5,5.6,68,0.00,,,0.02,TxWx,2013-10-03 21:23:00,
2013-10-03 16:28:00,82.1,70.0,29.76,NW,325,0.6,7.4,67,0.00,,,0.02,TxWx,2013-10-03 21:28:00,
2013-10-03 16:33:00,82.4,70.0,29.76,East,100,2.5,9.3,67,0.00,,,0.02,TxWx,2013-10-03 21:33:00,
2013-10-03 16:38:00,82.3,70.0,29.76,South,190,1.9,6.2,67,0.00,,,0.02,TxWx,2013-10-03 21:38:00,
2013-10-03 16:43:00,82.1,70.0,29.76,South,190,9.3,9.3,68,0.00,,,0.02,TxWx,2013-10-03 21:43:00,
2013-10-03 16:48:00,82.4,70.0,29.76,SSE,167,5.6,6.8,68,0.00,,,0.02,TxWx,2013-10-03 21:48:00,
2013-10-03 16:53:00,82.4,70.0,29.76,West,280,7.4,10.5,67,0.00,,,0.02,TxWx,2013-10-03 21:53:00,
2013-10-03 16:58:00,82.7,71.0,29.76,SW,235,3.1,8.0,67,0.00,,,0.02,TxWx,2013-10-03 21:58:00,
2013-10-03 17:03:00,82.7,70.0,29.76,South,190,8.0,8.7,65,0.00,,,0.02,TxWx,2013-10-03 22:03:00,
2013-10-03 17:09:00,82.5,69.0,29.75,WSW,257,5.6,8.0,65,0.00,,,0.02,TxWx,2013-10-03 22:09:00,
2013-10-03 17:14:00,82.4,69.0,29.75,WNW,302,4.3,5.0,65,0.00,,,0.02,TxWx,2013-10-03 22:14:00,
2013-10-03 17:19:00,82.2,69.0,29.75,East,100,5.6,10.5,66,0.00,,,0.02,TxWx,2013-10-03 22:19:00,
2013-10-03 17:24:00,82.3,69.0,29.75,NNW,347,0.6,5.6,66,0.00,,,0.02,TxWx,2013-10-03 22:24:00,
2013-10-03 17:29:00,82.1,70.0,29.76,South,190,0.6,5.0,67,0.00,,,0.02,TxWx,2013-10-03 22:29:00,
2013-10-03 17:34:00,81.8,69.0,29.76,SSW,212,2.5,5.6,66,0.00,,,0.02,TxWx,2013-10-03 22:34:00,
2013-10-03 17:39:00,81.8,69.0,29.76,SW,235,2.5,5.0,66,0.00,,,0.02,TxWx,2013-10-03 22:39:00,
2013-10-03 17:44:00,81.7,69.0,29.76,South,190,3.7,14.2,66,0.00,,,0.02,TxWx,2013-10-03 22:44:00,
2013-10-03 17:49:00,81.5,69.0,29.76,WSW,257,5.0,6.2,66,0.00,,,0.02,TxWx,2013-10-03 22:49:00,
2013-10-03 17:54:00,81.4,69.0,29.76,WNW,302,1.2,7.4,66,0.00,,,0.02,TxWx,2013-10-03 22:54:00,
2013-10-03 17:59:00,81.2,69.0,29.76,NNE,32,3.7,4.3,67,0.00,,,0.02,TxWx,2013-10-03 22:59:00,
2013-10-03 18:04:00,81.1,68.0,29.77,West,280,4.3,4.3,66,0.00,,,0.02,TxWx,2013-10-03 23:04:00,
2013-10-03 18:09:00,80.9,69.0,29.77,NE,55,0.6,2.5,66,0.00,,,0.02,TxWx,2013-10-03 23:09:00,
2013-10-03 18:14:00,80.7,68.0,29.77,South,190,2.5,6.8,66,0.00,,,0.02,TxWx,2013-10-03 23:14:00,
2013-10-03 18:19:00,80.6,69.0,29.77,WSW,257,0.6,1.2,66,0.00,,,0.02,TxWx,2013-10-03 23:19:00,
2013-10-03 18:24:00,80.3,68.0,29.77,SW,235,5.0,5.0,67,0.00,,,0.02,TxWx,2013-10-03 23:24:00,
2013-10-03 18:29:00,80.2,68.0,29.77,SW,235,1.9,4.3,67,0.00,,,0.02,TxWx,2013-10-03 23:29:00,
2013-10-03 18:34:00,80.1,68.0,29.78,WSW,257,4.3,4.3,68,0.00,,,0.02,TxWx,2013-10-03 23:34:00,
2013-10-03 18:39:00,79.9,68.0,29.77,WSW,257,1.9,4.3,68,0.00,,,0.02,TxWx,2013-10-03 23:39:00,
2013-10-03 18:44:00,79.8,68.0,29.78,WSW,257,1.2,1.9,68,0.00,,,0.02,TxWx,2013-10-03 23:44:00,
2013-10-03 18:49:00,79.6,69.0,29.78,NNE,32,0.6,3.7,69,0.00,,,0.02,TxWx,2013-10-03 23:49:00,
2013-10-03 18:54:00,79.3,68.0,29.78,SW,235,1.9,3.1,70,0.00,,,0.02,TxWx,2013-10-03 23:54:00,
2013-10-03 18:59:00,79.2,68.0,29.78,SSW,212,0.6,3.7,70,0.00,,,0.02,TxWx,2013-10-03 23:59:00,
2013-10-03 19:05:00,78.9,69.0,29.78,South,190,0.6,6.2,71,0.00,,,0.02,TxWx,2013-10-04 00:05:00,
2013-10-03 19:10:00,78.8,69.0,29.78,North,10,1.2,4.3,71,0.00,,,0.02,TxWx,2013-10-04 00:10:00,
2013-10-03 19:15:00,78.7,69.0,29.78,WSW,257,1.2,5.0,71,0.00,,,0.02,TxWx,2013-10-04 00:15:00,
2013-10-03 19:20:00,78.6,69.0,29.78,NNW,347,1.9,3.7,71,0.00,,,0.02,TxWx,2013-10-04 00:20:00,
2013-10-03 19:25:00,78.5,69.0,29.79,SW,235,2.5,2.5,72,0.00,,,0.02,TxWx,2013-10-04 00:25:00,
2013-10-03 19:30:00,78.2,68.0,29.79,East,100,0.6,5.0,73,0.00,,,0.02,TxWx,2013-10-04 00:30:00,
2013-10-03 19:35:00,78.0,68.0,29.78,ESE,122,2.5,2.5,73,0.00,,,0.02,TxWx,2013-10-04 00:35:00,
2013-10-03 19:40:00,77.8,69.0,29.79,SSW,212,2.5,4.3,73,0.00,,,0.02,TxWx,2013-10-04 00:40:00,
2013-10-03 19:45:00,77.6,69.0,29.79,SSE,167,1.2,3.7,74,0.00,,,0.02,TxWx,2013-10-04 00:45:00,
2013-10-03 19:50:00,77.6,69.0,29.79,SW,235,3.7,7.4,74,0.00,,,0.02,TxWx,2013-10-04 00:50:00,
2013-10-03 19:55:00,77.5,68.0,29.79,WSW,257,1.2,2.5,74,0.00,,,0.02,TxWx,2013-10-04 00:55:00,
2013-10-03 20:02:00,77.4,68.0,29.80,WSW,257,1.2,1.9,74,0.00,,,0.02,TxWx,2013-10-04 01:02:00,
2013-10-03 20:07:00,77.3,68.0,29.80,WSW,257,3.1,3.7,74,0.00,,,0.02,TxWx,2013-10-04 01:07:00,
2013-10-03 20:12:00,77.3,68.0,29.80,South,190,1.2,5.0,73,0.00,,,0.02,TxWx,2013-10-04 01:12:00,
2013-10-03 20:17:00,77.2,68.0,29.80,ESE,122,1.9,6.8,74,0.00,,,0.02,TxWx,2013-10-04 01:17:00,
2013-10-03 20:22:00,77.0,68.0,29.80,SW,235,0.0,3.7,74,0.00,,,0.02,TxWx,2013-10-04 01:22:00,
2013-10-03 20:27:00,76.8,68.0,29.80,South,190,0.6,1.9,74,0.00,,,0.02,TxWx,2013-10-04 01:27:00,
2013-10-03 20:32:00,76.6,68.0,29.80,SW,235,1.2,3.7,75,0.00,,,0.02,TxWx,2013-10-04 01:32:00,
2013-10-03 20:37:00,76.5,68.0,29.80,SW,235,1.2,3.1,75,0.00,,,0.02,TxWx,2013-10-04 01:37:00,
2013-10-03 20:42:00,76.3,67.0,29.81,South,190,0.6,3.7,75,0.00,,,0.02,TxWx,2013-10-04 01:42:00,
2013-10-03 20:47:00,76.0,68.0,29.81,SSW,212,1.2,1.9,76,0.00,,,0.02,TxWx,2013-10-04 01:47:00,
2013-10-03 20:52:00,75.9,68.0,29.81,SSE,167,2.5,3.1,76,0.00,,,0.02,TxWx,2013-10-04 01:52:00,
2013-10-03 20:57:00,75.7,68.0,29.81,SW,235,1.9,4.3,77,0.00,,,0.02,TxWx,2013-10-04 01:57:00,
2013-10-03 21:02:00,75.4,67.0,29.81,South,190,0.6,2.5,78,0.00,,,0.02,TxWx,2013-10-04 02:02:00,
2013-10-03 21:07:00,75.1,68.0,29.81,SW,235,1.9,1.9,78,0.00,,,0.02,TxWx,2013-10-04 02:07:00,
2013-10-03 21:12:00,74.9,68.0,29.81,NNW,347,0.6,8.0,79,0.00,,,0.02,TxWx,2013-10-04 02:12:00,
2013-10-03 21:17:00,74.8,68.0,29.81,South,190,1.2,6.2,79,0.00,,,0.02,TxWx,2013-10-04 02:17:00,
2013-10-03 21:22:00,74.7,68.0,29.81,SW,235,4.3,4.3,80,0.00,,,0.02,TxWx,2013-10-04 02:22:00,
2013-10-03 21:27:00,74.7,68.0,29.81,WSW,257,4.3,5.0,80,0.00,,,0.02,TxWx,2013-10-04 02:27:00,
2013-10-03 21:32:00,74.7,68.0,29.81,WSW,257,1.2,1.9,80,0.00,,,0.02,TxWx,2013-10-04 02:32:00,
2013-10-03 21:37:00,74.7,68.0,29.81,SW,235,4.3,6.8,80,0.00,,,0.02,TxWx,2013-10-04 02:37:00,
2013-10-03 21:43:00,74.7,68.0,29.81,SSW,212,5.0,6.2,80,0.00,,,0.02,TxWx,2013-10-04 02:43:00,
2013-10-03 21:48:00,74.6,68.0,29.82,West,280,2.5,6.2,80,0.00,,,0.02,TxWx,2013-10-04 02:48:00,
2013-10-03 21:53:00,74.5,68.0,29.82,WSW,257,3.1,6.8,81,0.00,,,0.02,TxWx,2013-10-04 02:53:00,
2013-10-03 21:58:00,74.4,68.0,29.82,WSW,257,3.7,5.0,81,0.00,,,0.02,TxWx,2013-10-04 02:58:00,
2013-10-03 22:03:00,74.4,68.0,29.82,West,280,1.2,4.3,81,0.00,,,0.02,TxWx,2013-10-04 03:03:00,
2013-10-03 22:08:00,74.4,68.0,29.82,SSW,212,1.9,6.2,81,0.00,,,0.02,TxWx,2013-10-04 03:08:00,
2013-10-03 22:13:00,74.4,68.0,29.83,SW,235,2.5,3.1,81,0.00,,,0.02,TxWx,2013-10-04 03:13:00,
2013-10-03 22:18:00,74.3,68.0,29.83,WSW,257,2.5,6.8,81,0.00,,,0.02,TxWx,2013-10-04 03:18:00,
2013-10-03 22:23:00,74.2,68.0,29.83,WSW,257,3.7,6.8,81,0.00,,,0.02,TxWx,2013-10-04 03:23:00,
2013-10-03 22:28:00,74.0,68.0,29.83,WNW,302,1.9,4.3,81,0.00,,,0.02,TxWx,2013-10-04 03:28:00,
2013-10-03 22:33:00,74.0,68.0,29.83,SSW,212,2.5,3.1,81,0.00,,,0.02,TxWx,2013-10-04 03:33:00,
2013-10-03 22:38:00,73.9,68.0,29.83,WSW,257,3.1,5.6,81,0.00,,,0.02,TxWx,2013-10-04 03:38:00,
2013-10-03 22:43:00,73.9,68.0,29.84,South,190,1.2,11.8,81,0.00,,,0.02,TxWx,2013-10-04 03:43:00,
2013-10-03 22:48:00,73.9,68.0,29.84,SSW,212,1.2,3.7,81,0.00,,,0.02,TxWx,2013-10-04 03:48:00,
2013-10-03 22:53:00,73.7,68.0,29.84,SW,235,3.7,5.6,81,0.00,,,0.02,TxWx,2013-10-04 03:53:00,
2013-10-03 23:00:00,73.7,68.0,29.84,SW,235,1.2,5.6,81,0.00,,,0.02,TxWx,2013-10-04 04:00:00,
2013-10-03 23:32:00,73.1,67.0,29.84,SW,235,2.5,3.1,82,0.00,,,0.02,TxWx,2013-10-04 04:32:00,
2013-10-03 23:35:00,73.0,67.0,29.85,WSW,257,1.9,8.7,82,0.00,,,0.02,TxWx,2013-10-04 04:35:00,
2013-10-03 23:38:00,72.9,67.0,29.85,SW,235,1.9,3.7,82,0.00,,,0.02,TxWx,2013-10-04 04:38:00,
2013-10-03 23:40:00,72.8,67.0,29.84,West,280,1.2,7.4,83,0.00,,,0.02,TxWx,2013-10-04 04:40:00,
2013-10-03 23:43:00,72.7,67.0,29.84,SSW,212,3.7,3.7,83,0.00,,,0.02,TxWx,2013-10-04 04:43:00,
2013-10-03 23:46:00,72.6,68.0,29.84,SW,235,1.9,5.6,83,0.00,,,0.02,TxWx,2013-10-04 04:46:00,
2013-10-03 23:48:00,72.5,68.0,29.84,SW,235,0.6,5.0,83,0.00,,,0.02,TxWx,2013-10-04 04:48:00,
2013-10-03 23:53:00,72.4,67.0,29.84,SSW,212,4.3,4.3,84,0.00,,,0.02,TxWx,2013-10-04 04:53:00,
2013-10-03 23:54:00,72.4,67.0,29.84,SSE,167,2.5,5.0,84,0.00,,,0.02,TxWx,2013-10-04 04:54:00,
2013-10-03 23:57:00,72.4,67.0,29.84,North,10,1.2,3.1,84,0.00,,,0.02,TxWx,2013-10-04 04:57:00,